THORAD AGENA D DEB, 4683

Orbit data source: Space-Track

THORAD AGENA D DEB, 4683 is space debris in SSO originally from a launch on Wed, 08 Apr 1970 UTC launched from the Air Force Western Test Range (AFWTR). Debris objects in space refer to the collection of defunct objects orbiting the Earth. Examples of debris include non-operational satellites, rocket bodies, and fragments generated from explosions, collisions, or faulty payload assembly.

Loading next visibility...
Identifier
4683, 1970-025BG
Orbit
SSO
Country
Flag of USUS
Related business
Manufacturer
Unknown
Mission
Spacecraft
Bus & Motor
Unknown
Mass
Unknown
Launch date (UTC)
1970-04-08 (56 years ago)
Launch vehicle
Unknown
Launch site
Air Force Western Test Range (AFWTR)
Object type
Payload
Rocket body
Debris
Shape & HBR
Unknown shape, 0.1 m
Radar Cross Section
Small (<0.1 m²)

Expand to show TLE details & history
Last TLE update: 17 hours ago

TLE from 17 hours ago
0 THORAD AGENA D DEB
1 04683U 70025BG  25349.32407588  .00000276  00000-0  61307-3 0  9990
2 04683 100.4382  22.3688 0122886 165.3488 259.5921 13.34907699702959
Epoch: 2025-12-15T07:46Z
TLE epoch observation values (Epoch: 2025-12-15T07:46:40.156Z)
Latitude
61.80437°
Longitude
161.48508°
Altitude
1,156.537 km
Speed
7.272 km/s
True Right ascension
00h 09m 30s
True Declination
61° 40' 07"
Sunlit
Object was in daylight at epoch
Visualization orbit readout
Latitude
Unknown
Longitude
Unknown
Altitude
Unknown
Speed
Unknown
Apparent Right ascension
Unknown
Apparent Declination
Unknown
Sunlit
N/A
Visualization observer readout
Local Sidereal Time
23:40:32
Azimuth
Unknown
Elevation
Unknown
Doppler factor
Unknown
Orbital elements
Apogee altitude
1,217.88 km
Perigee altitude
1,033.457 km
Semi-major axis
7,503.806 km
Eccentricity
0.01229
Inclination
100.4382°
RAAN
22.3688°
Arg. of periapsis
165.3488°
True anomaly
258.21107°
Mean anomaly
259.5921°
Eccentric anomaly
258.90118°
Mean motion
3.33903 °/min
Orbital period
107.82 mins
BSTAR
0.00061307
Loading maneuver chart data...
Computing Atmospheric mass density...

Documentation

Showing up to 5 results
|